Location: Unspecified
(0.0000°N, 0.0000°E)
Time: 19:53:43
(UTC+02:00)

ARIANE DEB (SPELDA) - Visible Passes

Search period start: 04 August 2015 00:00
Search period end: 14 August 2015 00:00
Orbit: 309 x 33132 km, 3.6° (Epoch: 04 August)

Date Brightness Start Highest point End Pass type
(mag) Time Alt. Az. Time Alt. Az. Time Alt. Az.
05 Aug 6.9 00:04:34 10° W 08:55:30 89° S 09:06:17 10° E visible
05 Aug 6.4 19:09:37 10° W 19:18:06 84° N 04:08:15 10° E visible
07 Aug 6.4 00:40:45 10° W 09:30:45 89° N 09:38:58 10° E visible
07 Aug 6.9 19:42:14 10° W 19:53:22 87° N 04:44:03 10° E visible
09 Aug 5.9 01:17:56 10° W 10:04:45 86° N 10:11:08 10° E visible
09 Aug 7.4 20:14:33 10° W 20:29:25 89° N 05:18:26 10° E visible
10 Aug 3.7 15:27:06 10° WNW 15:29:17 46° N 15:34:39 10° E visible
11 Aug 5.4 01:56:58 10° W 10:37:47 82° N 10:42:47 10° E visible
11 Aug 7.9 20:46:38 10° W 21:07:02 89° S 05:51:44 10° E visible
12 Aug 4.1 15:58:32 10° WNW 16:01:10 57° N 16:10:24 10° E visible
13 Aug 4.9 02:39:34 10° W 11:10:01 76° N 11:13:58 10° E visible
